Regional Weather Roundup
Issued by NWS Huntsville, AL

Home | Current Version | Previous Version | Text Only | Print | Product List | Glossary On
Versions: 1 2 3 4 5 6 7 8 9 10 11 12 13 14 15 16 17 18 19 20 21 22 23 24 25 26 27 28 29 30 31 32 33 34 35 36 37 38 39 40 41 42 43 44 45 46 47 48 49 50
000
ASUS44 KHUN 020910
RWRHUN

WEATHER ROUNDUP FOR THE TENNESSEE VALLEY
NATIONAL WEATHER SERVICE HUNTSVILLE AL
400 AM CDT THU JUL 02 2015

ALZ001>004-021000-
NORTHWEST ALABAMA

CITY           SKY/WX    TMP DP  RH WIND       PRES   REMARKS
RUSSELLVILLE     N/A     75 N/A N/A MISG        N/A
SHOALS AIRPORT MOCLDY    75  69  81 W7        29.95S
SHOALS TVA RES   N/A     73 N/A N/A MISG        N/A
$$

ALZ005>007-016-021000-
NORTH CENTRAL ALABAMA

CITY           SKY/WX    TMP DP  RH WIND       PRES   REMARKS
CULLMAN AG STN   N/A     68 N/A N/A CALM        N/A
DECATUR AP     PTCLDY    72  70  93 SW7       29.95F
HUNTSVILLE AP  PTCLDY    72  68  87 CALM      29.96S
HUN NWS/UAH      N/A     70  67  90 SE1         N/A
REDSTONE ARSN  PTCLDY    68  67  96 NE2       29.96R
$$

ALZ008>010-021000-
NORTHEAST ALABAMA

CITY           SKY/WX    TMP DP  RH WIND       PRES   REMARKS
FORT PAYNE     NOT AVBL
SCOTTSBORO AP  PTCLDY    70  70 100 SW5       29.97F
SCOTTSBORO HCN   N/A     68 N/A N/A MISG        N/A
VALLEY HEAD      N/A     68 N/A N/A MISG        N/A
$$

TNZ076-096-097-021000-
SOUTHEASTERN MIDDLE TENNESSEE

CITY           SKY/WX    TMP DP  RH WIND       PRES   REMARKS
TULLAHOMA      MOCLDY    68  66  94 SW3       29.97S
WINCHESTER     MOCLDY    70  68  94 CALM      29.97R
$$

...SURROUNDING SITES...

CITY           SKY/WX    TMP DP  RH WIND       PRES   REMARKS
ATLANTA        PTCLDY    68  63  84 W3        30.00S
ANNISTON       CLEAR     67  65  93 SW3       30.01S
BIRMINGHAM     PTCLDY    72  70  93 S7        30.01F
CHATTANOOGA      N/A     69  68  96 S5        29.98F
CORINTH        MOCLDY    77  72  83 SW6G12    29.92S
DALTON         NOT AVBL
GADSDEN        CLEAR    N/A N/A N/A CALM      29.98S
GOLDEN TRNGL   CLOUDY    73  70  88 SW6       29.97F
HALEYVILLE     FAIR      71  71 100 SW7       30.00S
JACKSON TN     CLOUDY    77  71  82 SW10      29.89F
MEMPHIS        LGT RAIN  79  72  79 SW8       29.90F
NASHVILLE      CLOUDY    71  71 100 S5        29.91S
OXFORD MS      FAIR      75  68  78 SW7       29.96S
ROME           PTCLDY    68  67  96 CALM      29.98F FOG
SAVANNAH       CLEAR     73  32  21 SW8       29.93S
TUPELO         CLOUDY    77  72  84 SW7       29.94F
TUSCALOOSA     CLOUDY    74  70  87 S6        29.99F
$$

...GULF COAST WEATHER...

CITY           SKY/WX    TMP DP  RH WIND       PRES   REMARKS
GULFPORT       MOCLDY    78  75  90 S7        30.04S
PASCAGOULA     PTCLDY    74  73  97 CALM      30.04F
MOBILE         PTCLDY    73  72  96 S3        30.06F
PENSACOLA      MOCLDY    77  73  87 CALM      30.06S
DESTIN         MOCLDY    80  73  79 CALM      30.07S
PANAMA CITY    PTCLDY    79  72  80 SW12      30.08R
APPALACHICOLA  MOCLDY    80  69  69 W8        30.07S
$$



USA.gov is the U.S. government's official web portal to all federal, state and local government web resources and services.